EW4650 Weather Reports


Display with metric or nautical units.
time (UTC)temp
F
wind
direction
speed
MPH
gust
MPH
rain 1hr
in
rain 24hr
in
rain mn
in
humidity
%
barometer
mb
20260905152504 81 229 7.0 11.0 0.00 0.00 0.00 79 1012.0
20260905152004 81 195 7.0 11.0 0.00 0.00 0.00 79 1012.1
20260905151506 81 218 6.0 10.0 0.00 0.00 0.00 80 1012.1
20260905151001 80 164 5.0 8.0 0.00 0.00 0.00 82 1012.2
20260905150502 80 203 3.0 8.0 0.00 0.00 0.00 82 1012.1
20260905150100 80 186 6.0 11.0 0.00 0.00 0.00 83 1012.1
20260905145559 79 202 4.0 11.0 0.00 0.00 0.00 84 1012.0
20260905145059 79 183 5.0 11.0 0.00 0.00 0.00 84 1012.0
20260905144601 79 180 7.0 10.0 0.00 0.00 0.00 83 1012.0
20260905144059 79 179 5.0 9.0 0.00 0.00 0.00 84 1012.0
20260905143558 79 169 5.0 9.0 0.00 0.00 0.00 84 1012.0
20260905143057 79 202 6.0 10.0 0.00 0.00 0.00 84 1011.9
20260905142556 79 182 3.0 12.0 0.00 0.00 0.00 85 1011.9
20260905142059 79 182 7.0 12.0 0.00 0.00 0.00 85 1011.9
20260905141556 79 177 6.0 11.0 0.00 0.00 0.00 86 1011.9
20260905141055 78 150 6.0 12.0 0.00 0.00 0.00 86 1011.9
20260905140554 78 195 5.0 11.0 0.00 0.00 0.00 88 1011.8
20260905140054 77 188 6.0 10.0 0.00 0.00 0.00 89 1011.8
20260905135553 77 168 3.0 8.0 0.00 0.00 0.00 89 1011.9
20260905135053 77 190 4.0 8.0 0.00 0.00 0.00 90 1011.9
20260905134554 77 142 4.0 9.0 0.00 0.00 0.00 91 1011.8
20260905134052 76 173 5.0 9.0 0.00 0.00 0.00 92 1011.7
20260905133552 76 157 4.0 12.0 0.00 0.00 0.00 93 1011.7
20260905133055 75 179 4.0 10.0 0.00 0.00 0.00 94 1011.6
20260905132551 75 163 1.0 7.0 0.00 0.00 0.00 94 1011.6
20260905132056 75 128 3.0 7.0 0.00 0.00 0.00 95 1011.5
20260905131549 74 144 3.0 5.0 0.00 0.00 0.00 95 1011.4
20260905131049 74 142 0.0 5.0 0.00 0.00 0.00 95 1011.4
20260905130549 74 135 1.0 5.0 0.00 0.00 0.00 95 1011.3
20260905130048 74 165 2.0 4.0 0.00 0.00 0.00 95 1011.3
20260905125548 73 164 1.0 6.0 0.00 0.00 0.00 95 1011.3
20260905125048 73 164 1.0 6.0 0.00 0.00 0.00 95 1011.2
20260905124552 73 167 2.0 5.0 0.00 0.00 0.00 95 1011.1
20260905124047 73 141 1.0 4.0 0.00 0.00 0.00 95 1011.0
20260905123547 73 170 2.0 6.0 0.00 0.00 0.00 95 1011.1
20260905123047 73 145 3.0 8.0 0.00 0.00 0.00 95 1011.1
20260905122549 73 167 4.0 8.0 0.00 0.00 0.00 95 1011.0
20260905122046 73 178 3.0 7.0 0.00 0.00 0.00 95 1011.0
20260905121546 73 154 2.0 7.0 0.00 0.00 0.00 95 1010.9
20260905121046 73 159 2.0 8.0 0.00 0.00 0.00 95 1010.9
20260905120545 73 148 4.0 8.0 0.00 0.00 0.00 95 1010.9
20260905120048 73 182 2.0 5.0 0.00 0.00 0.00 94 1010.8
20260905115544 73 144 2.0 7.0 0.00 0.00 0.00 94 1010.9
20260905115044 73 126 2.0 7.0 0.00 0.00 0.00 94 1010.8
20260905114545 73 134 3.0 7.0 0.00 0.00 0.00 94 1010.7
20260905114145 73 136 3.0 7.0 0.00 0.00 0.00 94 1010.7
20260905113544 73 140 2.0 6.0 0.00 0.00 0.00 94 1010.7
20260905113043 73 146 2.0 5.0 0.00 0.00 0.00 93 1010.6
20260905112543 73 136 2.0 7.0 0.00 0.00 0.00 93 1010.7
20260905112043 73 148 0.0 7.0 0.00 0.00 0.00 93 1010.6
20260905111551 73 180 3.0 8.0 0.00 0.00 0.00 93 1010.6
20260905111043 74 155 2.0 9.0 0.00 0.00 0.00 93 1010.7
20260905110543 74 161 5.0 9.0 0.00 0.00 0.00 93 1010.7
20260905110041 74 163 4.0 7.0 0.00 0.00 0.00 93 1010.7
20260905105541 74 182 5.0 7.0 0.00 0.00 0.00 92 1010.7
20260905105041 74 146 2.0 8.0 0.00 0.00 0.00 92 1010.7
20260905104541 74 210 4.0 8.0 0.00 0.00 0.00 92 1010.8
20260905104040 74 213 2.0 6.0 0.00 0.00 0.00 92 1010.7
20260905103540 74 172 3.0 7.0 0.00 0.00 0.00 92 1010.7
20260905103045 74 174 2.0 7.0 0.00 0.00 0.00 92 1010.7
20260905102539 74 175 3.0 7.0 0.00 0.00 0.00 92 1010.6
20260905102039 74 137 4.0 9.0 0.00 0.00 0.00 91 1010.6
20260905101538 74 132 3.0 10.0 0.00 0.00 0.00 91 1010.5
20260905101039 74 173 4.0 11.0 0.00 0.00 0.00 91 1010.5
20260905100537 74 178 6.0 11.0 0.00 0.00 0.00 91 1010.5
20260905100036 74 144 5.0 8.0 0.00 0.00 0.00 91 1010.5
20260905095536 74 154 4.0 9.0 0.00 0.00 0.00 91 1010.6
20260905095036 74 161 4.0 8.0 0.00 0.00 0.00 91 1010.6
20260905094538 74 176 4.0 10.0 0.00 0.00 0.00 91 1010.5
20260905094034 74 168 5.0 11.0 0.00 0.00 0.00 91 1010.6
20260905093534 74 140 4.0 9.0 0.00 0.00 0.00 91 1010.7
20260905093033 74 148 4.0 9.0 0.00 0.00 0.00 91 1010.7
20260905092536 74 165 5.0 7.0 0.00 0.00 0.00 91 1010.8
20260905092032 74 150 4.0 8.0 0.00 0.00 0.00 91 1010.7
20260905091608 74 158 3.0 8.0 0.00 0.00 0.00 91 1010.7
20260905091034 74 173 3.0 9.0 0.00 0.00 0.00 91 1010.8
20260905090531 74 168 5.0 9.0 0.00 0.00 0.00 90 1010.7
20260905090031 74 161 5.0 9.0 0.00 0.00 0.00 90 1010.7
20260905085530 74 156 2.0 9.0 0.00 0.00 0.00 90 1010.8
20260905085030 74 174 4.0 9.0 0.00 0.00 0.00 90 1010.8
20260905084529 74 171 3.0 10.0 0.00 0.00 0.00 90 1010.7
20260905084029 74 134 3.0 10.0 0.00 0.00 0.00 90 1010.7
20260905083529 74 122 4.0 8.0 0.00 0.00 0.00 89 1010.6
20260905083027 74 138 2.0 8.0 0.00 0.00 0.00 89 1010.7
20260905082527 74 146 3.0 8.0 0.00 0.00 0.00 89 1010.6
20260905082026 75 148 3.0 6.0 0.00 0.00 0.00 88 1010.7
20260905081527 75 144 2.0 11.0 0.00 0.00 0.00 88 1010.7
20260905081025 75 178 5.0 11.0 0.00 0.00 0.00 88 1010.6
20260905080524 75 154 4.0 8.0 0.00 0.00 0.00 87 1010.6
20260905080027 75 160 3.0 8.0 0.00 0.00 0.00 87 1010.7
20260905075523 75 171 4.0 9.0 0.00 0.00 0.00 86 1010.8
20260905075021 75 197 3.0 10.0 0.00 0.00 0.00 86 1010.8
20260905074521 75 168 2.0 10.0 0.00 0.00 0.00 85 1010.8
20260905074021 75 164 4.0 9.0 0.00 0.00 0.00 84 1010.9
20260905073519 75 150 4.0 12.0 0.00 0.00 0.00 84 1011.0
20260905073019 75 138 5.0 12.0 0.00 0.00 0.00 83 1011.0
20260905072521 76 126 4.0 10.0 0.00 0.00 0.00 83 1011.1
20260905072017 76 140 5.0 10.0 0.00 0.00 0.00 83 1011.0
20260905071516 76 175 4.0 10.0 0.00 0.00 0.00 83 1010.9
20260905071014 76 174 5.0 12.0 0.00 0.00 0.00 82 1010.9
20260905070513 76 150 5.0 10.0 0.00 0.00 0.00 81 1010.9
20260905070021 76 146 3.0 10.0 0.00 0.00 0.00 80 1010.9
20260905065518 76 185 5.0 14.0 0.00 0.00 0.00 80 1011.1
20260905065011 76 155 8.0 14.0 0.00 0.00 0.00 79 1011.0
20260905064511 77 155 4.0 10.0 0.00 0.00 0.00 78 1011.0
20260905064011 77 168 6.0 10.0 0.00 0.00 0.00 78 1011.0
20260905063510 77 154 4.0 10.0 0.00 0.00 0.00 78 1011.1
20260905063009 77 163 4.0 10.0 0.00 0.00 0.00 77 1011.0
20260905062512 77 123 4.0 8.0 0.00 0.00 0.00 77 1011.1
20260905062007 77 150 3.0 10.0 0.00 0.00 0.00 76 1011.3
20260905061507 77 174 5.0 12.0 0.00 0.00 0.00 76 1011.1
20260905061012 77 160 8.0 12.0 0.00 0.00 0.00 76 1011.0
20260905060508 78 132 5.0 9.0 0.00 0.00 0.00 76 1011.0
20260905060008 78 131 4.0 10.0 0.00 0.00 0.00 76 1010.9
20260905055504 78 169 5.0 15.0 0.00 0.00 0.00 76 1010.9
20260905055006 78 166 8.0 16.0 0.00 0.00 0.00 75 1011.1
20260905054502 78 139 8.0 12.0 0.00 0.00 0.00 75 1011.0
20260905054003 78 196 7.0 12.0 0.00 0.00 0.00 76 1010.9
20260905053502 78 167 7.0 13.0 0.00 0.00 0.00 76 1010.9
20260905053002 78 178 8.0 13.0 0.00 0.00 0.00 76 1011.0
20260905052600 78 165 8.0 14.0 0.00 0.00 0.00 76 1011.0
20260905052059 79 169 8.0 10.0 0.00 0.00 0.00 76 1011.1
20260905051559 79 146 5.0 10.0 0.00 0.00 0.00 75 1011.2
20260905051057 79 190 5.0 16.0 0.00 0.00 0.00 75 1011.1
20260905050556 79 161 9.0 16.0 0.00 0.00 0.00 75 1011.1
20260905050055 79 165 8.0 16.0 0.00 0.00 0.00 75 1011.2
20260905045554 79 140 9.0 13.0 0.00 0.00 0.00 75 1011.2
20260905045054 79 163 7.0 14.0 0.00 0.00 0.00 74 1011.1
20260905044554 79 170 9.0 15.0 0.00 0.00 0.00 74 1011.2
20260905044054 79 132 8.0 16.0 0.00 0.00 0.00 74 1011.1
20260905043554 79 140 9.0 16.0 0.00 0.00 0.00 74 1011.1
20260905043054 79 124 9.0 12.0 0.00 0.00 0.00 74 1011.1
20260905042554 79 162 6.0 14.0 0.00 0.00 0.00 74 1011.2
20260905042054 79 111 8.0 14.0 0.00 0.00 0.00 74 1011.4
20260905041601 79 117 8.0 13.0 0.00 0.00 0.00 74 1011.2
20260905041053 79 139 8.0 13.0 0.00 0.00 0.00 74 1011.2
20260905040552 79 91 8.0 16.0 0.00 0.00 0.00 74 1011.3
20260905040052 79 138 8.0 16.0 0.00 0.00 0.00 74 1011.3
20260905035552 78 119 5.0 10.0 0.00 0.00 0.00 74 1011.3
20260905035051 78 104 4.0 12.0 0.00 0.00 0.00 75 1011.3
20260905034604 78 113 5.0 9.0 0.00 0.00 0.00 75 1011.3
20260905034054 78 106 5.0 8.0 0.00 0.00 0.00 75 1011.2
20260905033551 78 107 5.0 8.0 0.00 0.00 0.00 75 1011.2
20260905033051 78 108 4.0 8.0 0.00 0.00 0.00 75 1011.1
20260905032551 78 104 4.0 8.0 0.00 0.00 0.00 75 1011.1
20260905032052 78 84 3.0 6.0 0.00 0.00 0.00 75 1011.0
20260905031553 78 98 3.0 7.0 0.00 0.00 0.00 75 1010.9
20260905031051 79 89 4.0 7.0 0.00 0.00 0.00 75 1010.9
20260905030550 79 107 3.0 6.0 0.00 0.00 0.00 74 1010.8
20260905030050 79 82 4.0 8.0 0.00 0.00 0.00 74 1010.8
20260905025551 79 94 5.0 9.0 0.00 0.00 0.00 74 1010.7
20260905025050 79 102 6.0 10.0 0.00 0.00 0.00 74 1010.7
20260905024550 79 101 6.0 12.0 0.00 0.00 0.00 74 1010.6
20260905024049 79 77 8.0 13.0 0.00 0.00 0.00 74 1010.5
20260905023549 80 92 9.0 13.0 0.00 0.00 0.00 73 1010.3
20260905023049 80 92 9.0 11.0 0.00 0.00 0.00 73 1010.2
20260905022549 80 96 9.0 11.0 0.00 0.00 0.00 73 1010.2
20260905022049 80 82 6.0 8.0 0.00 0.00 0.00 72 1010.2
20260905021553 80 92 5.0 8.0 0.00 0.00 0.00 72 1009.9
20260905021048 80 90 4.0 7.0 0.00 0.00 0.00 71 1009.9
20260905020548 80 110 3.0 8.0 0.00 0.00 0.00 71 1009.9
20260905020048 80 105 4.0 8.0 0.00 0.00 0.00 70 1010.0
20260905015548 80 101 4.0 8.0 0.00 0.00 0.00 69 1009.8
20260905015048 80 103 6.0 8.0 0.00 0.00 0.00 69 1009.8
20260905014548 81 96 6.0 8.0 0.00 0.00 0.00 69 1009.8
20260905014047 81 100 4.0 8.0 0.00 0.00 0.00 68 1009.9
20260905013549 81 90 4.0 9.0 0.00 0.00 0.00 68 1009.8
20260905013047 81 86 5.0 10.0 0.00 0.00 0.00 67 1009.7
20260905012547 81 96 7.0 12.0 0.00 0.00 0.00 67 1009.6
20260905012047 82 89 7.0 12.0 0.00 0.00 0.00 66 1009.6
20260905011546 82 71 6.0 8.0 0.00 0.00 0.00 66 1009.4
20260905011046 82 71 4.0 12.0 0.00 0.00 0.00 65 1009.4
20260905010548 83 93 7.0 12.0 0.00 0.00 0.00 64 1009.4
20260905010046 83 78 7.0 9.0 0.00 0.00 0.00 63 1009.6
20260905005546 83 69 5.0 8.0 0.00 0.00 0.00 62 1009.6
20260905005047 83 101 4.0 9.0 0.00 0.00 0.00 62 1009.6
20260905004548 84 95 6.0 9.0 0.00 0.00 0.00 62 1009.6
20260905004045 84 90 4.0 9.0 0.00 0.00 0.00 62 1009.6
20260905003545 85 99 6.0 9.0 0.00 0.00 0.00 62 1009.7
20260905003045 85 98 4.0 10.0 0.00 0.00 0.00 61 1009.6
20260905002544 85 94 6.0 9.0 0.00 0.00 0.00 60 1009.7
20260905002044 86 86 2.0 10.0 0.00 0.00 0.00 61 1009.7
20260905001554 86 75 5.0 11.0 0.00 0.00 0.00 60 1009.8
20260905001044 86 80 8.0 11.0 0.00 0.00 0.00 59 1009.7
20260905000544 87 94 5.0 10.0 0.00 0.00 0.00 60 1009.6
20260905000043 87 89 4.0 10.0 0.00 0.00 0.00 61 1009.4
20260904235548 87 70 5.0 10.0 0.00 0.00 0.00 61 1009.4
20260904235043 86 126 5.0 10.0 0.00 0.00 0.00 61 1009.4
20260904234543 86 132 6.0 11.0 0.00 0.00 0.00 62 1009.4
20260904234042 86 105 6.0 10.0 0.00 0.00 0.00 62 1009.4
20260904233542 86 114 5.0 12.0 0.00 0.00 0.00 63 1009.3
20260904233049 86 134 7.0 14.0 0.00 0.00 0.00 63 1009.2
20260904232543 87 155 9.0 14.0 0.00 0.00 0.00 63 1009.1
20260904232042 87 98 7.0 14.0 0.00 0.00 0.00 64 1009.0
20260904231552 88 144 9.0 14.0 0.00 0.00 0.00 62 1008.9
20260904231042 88 99 8.0 15.0 0.00 0.00 0.00 60 1009.0
20260904230542 88 108 10.0 15.0 0.00 0.00 0.00 60 1009.0
20260904230044 88 102 8.0 14.0 0.00 0.00 0.00 59 1009.0
20260904225541 88 98 9.0 14.0 0.00 0.00 0.00 58 1009.0
20260904225040 88 146 8.0 12.0 0.00 0.00 0.00 55 1009.0
20260904224548 87 58 5.0 18.0 0.00 0.00 0.00 56 1008.9
20260904224040 87 53 8.0 18.0 0.00 0.00 0.00 57 1008.9
20260904223541 87 77 12.0 18.0 0.00 0.00 0.00 58 1008.7
20260904223050 87 101 9.0 15.0 0.00 0.00 0.00 57 1008.8
20260904222539 87 118 10.0 16.0 0.00 0.00 0.00 61 1008.9
20260904222038 86 131 10.0 17.0 0.00 0.00 0.00 63 1008.9
20260904221537 86 85 10.0 16.0 0.00 0.00 0.00 65 1008.9
20260904221038 86 128 10.0 16.0 0.00 0.00 0.00 66 1008.9
20260904220537 86 107 8.0 16.0 0.00 0.00 0.00 68 1009.0
20260904220038 87 71 7.0 16.0 0.00 0.00 0.00 67 1009.0
20260904215537 87 80 11.0 16.0 0.00 0.00 0.00 66 1009.1
20260904215035 87 117 9.0 16.0 0.00 0.00 0.00 66 1009.0
20260904214535 87 135 7.0 14.0 0.00 0.00 0.00 66 1009.2
20260904214036 87 72 7.0 12.0 0.00 0.00 0.00 65 1009.1
20260904213535 87 111 6.0 13.0 0.00 0.00 0.00 65 1009.1
20260904213034 87 130 9.0 13.0 0.00 0.00 0.00 65 1009.2
20260904212535 87 82 8.0 16.0 0.00 0.00 0.00 65 1009.3
20260904212035 87 117 9.0 16.0 0.00 0.00 0.00 65 1009.4
20260904211537 87 106 9.0 14.0 0.00 0.00 0.00 65 1009.4
20260904211033 87 117 8.0 14.0 0.00 0.00 0.00 64 1009.5
20260904210533 87 120 7.0 14.0 0.00 0.00 0.00 65 1009.4
20260904210043 87 121 9.0 15.0 0.00 0.00 0.00 65 1009.6
20260904205533 87 188 9.0 15.0 0.00 0.00 0.00 64 1009.6
20260904205032 87 159 7.0 15.0 0.00 0.00 0.00 64 1009.8
20260904204534 87 82 5.0 13.0 0.00 0.00 0.00 64 1009.8
20260904204036 87 155 8.0 15.0 0.00 0.00 0.00 63 1009.8
20260904203532 87 133 8.0 15.0 0.00 0.00 0.00 63 1009.9
20260904203036 87 96 8.0 16.0 0.00 0.00 0.00 63 1010.0
20260904202531 88 171 9.0 16.0 0.00 0.00 0.00 64 1010.0
20260904202030 88 148 7.0 16.0 0.00 0.00 0.00 64 1010.0
20260904201530 88 85 6.0 13.0 0.00 0.00 0.00 64 1010.0
20260904201030 87 96 10.0 14.0 0.00 0.00 0.00 64 1010.0
20260904200528 87 149 5.0 14.0 0.00 0.00 0.00 65 1010.0
20260904200028 87 103 7.0 14.0 0.00 0.00 0.00 64 1010.1
20260904195528 87 117 7.0 14.0 0.00 0.00 0.00 65 1010.1
20260904195027 87 135 7.0 14.0 0.00 0.00 0.00 65 1010.1
20260904194526 87 96 8.0 14.0 0.00 0.00 0.00 66 1010.1
20260904194026 87 114 10.0 14.0 0.00 0.00 0.00 66 1010.2
20260904193526 87 134 7.0 12.0 0.00 0.00 0.00 66 1010.2
20260904193126 87 126 5.0 12.0 0.00 0.00 0.00 66 1010.2
20260904192525 86 99 8.0 13.0 0.00 0.00 0.00 66 1010.3
20260904192025 86 132 5.0 12.0 0.00 0.00 0.00 67 1010.3
20260904191526 86 89 7.0 12.0 0.00 0.00 0.00 67 1010.4
20260904191025 86 111 6.0 10.0 0.00 0.00 0.00 67 1010.4
20260904190524 86 198 2.0 7.0 0.00 0.00 0.00 67 1010.3
20260904190032 87 235 3.0 9.0 0.00 0.00 0.00 67 1010.4
20260904185523 87 209 4.0 9.0 0.00 0.00 0.00 66 1010.4
20260904185023 87 205 3.0 6.0 0.00 0.00 0.00 67 1010.5
20260904184523 87 206 2.0 12.0 0.00 0.00 0.00 66 1010.5
20260904184023 86 191 3.0 12.0 0.00 0.00 0.00 67 1010.5
20260904183522 86 223 3.0 8.0 0.00 0.00 0.00 67 1010.6
20260904183025 87 212 6.0 8.0 0.00 0.00 0.00 67 1010.6
20260904182521 86 186 3.0 9.0 0.00 0.00 0.00 67 1010.7
20260904182020 86 175 3.0 9.0 0.00 0.00 0.00 68 1010.6
20260904181529 86 194 6.0 10.0 0.00 0.00 0.00 67 1010.8
20260904181020 86 167 5.0 10.0 0.00 0.00 0.00 68 1010.8
20260904180520 85 163 3.0 9.0 0.00 0.00 0.00 68 1010.9
20260904180020 85 171 6.0 10.0 0.00 0.00 0.00 69 1011.0
20260904175525 85 176 8.0 11.0 0.00 0.00 0.00 69 1011.0
20260904175021 85 198 7.0 11.0 0.00 0.00 0.00 69 1011.1
20260904174519 85 190 7.0 11.0 0.00 0.00 0.00 69 1011.1
20260904174018 85 191 7.0 12.0 0.00 0.00 0.00 68 1011.2
20260904173518 85 168 5.0 11.0 0.00 0.00 0.00 69 1011.2
20260904173041 85 187 6.0 14.0 0.00 0.00 0.00 69 1011.3
20260904172521 86 208 8.0 14.0 0.00 0.00 0.00 68 1011.3
20260904172019 86 213 7.0 13.0 0.00 0.00 0.00 68 1011.3
20260904171517 86 171 7.0 13.0 0.00 0.00 0.00 68 1011.3
20260904171018 86 180 6.0 12.0 0.00 0.00 0.00 68 1011.3
20260904170516 86 169 6.0 15.0 0.00 0.00 0.00 68 1011.4
20260904170016 86 182 9.0 15.0 0.00 0.00 0.00 69 1011.4
20260904165517 86 184 5.0 10.0 0.00 0.00 0.00 69 1011.5
20260904165014 86 173 6.0 11.0 0.00 0.00 0.00 69 1011.5
20260904164515 85 192 4.0 11.0 0.00 0.00 0.00 70 1011.5
20260904164012 84 166 7.0 11.0 0.00 0.00 0.00 72 1011.5
20260904163512 83 197 8.0 12.0 0.00 0.00 0.00 74 1011.5
20260904163010 82 109 5.0 14.0 0.00 0.00 0.00 75 1011.5
20260904162509 82 177 7.0 12.0 0.00 0.00 0.00 79 1011.5
20260904162008 81 188 7.0 12.0 0.00 0.00 0.00 79 1011.5
20260904161511 81 187 7.0 11.0 0.00 0.00 0.00 79 1011.4
20260904161005 80 231 6.0 10.0 0.00 0.00 0.00 79 1011.3
20260904160504 80 153 7.0 10.0 0.00 0.00 0.00 79 1011.3
20260904160003 80 188 6.0 15.0 0.00 0.00 0.00 79 1011.3
20260904155502 80 179 8.0 15.0 0.00 0.00 0.00 79 1011.3
20260904155002 80 183 8.0 13.0 0.00 0.00 0.00 80 1011.2
20260904154502 79 202 7.0 12.0 0.00 0.00 0.00 81 1011.2
20260904154002 79 163 6.0 12.0 0.00 0.00 0.00 81 1011.2
20260904153502 79 171 5.0 14.0 0.00 0.00 0.00 82 1011.3
20260904153003 79 161 8.0 14.0 0.00 0.00 0.00 82 1011.3